Regional Weather Roundup
Issued by NWS

Home | Current Version | Previous Version | Graphics & Text | Print | Product List | Glossary On
Versions: 1 2 3 4 5 6 7 8 9 10 11 12 13 14 15 16 17 18 19 20 21 22 23 24 25 26 27 28 29 30 31 32 33 34 35 36 37 38 39 40 41 42 43 44 45 46 47 48 49 50
000
ASUS45 KSLC 310810
RWRUT
UTAH REGIONAL WEATHER ROUNDUP
NATIONAL WEATHER SERVICE SALT LAKE CITY UT
200 AM MDT FRI JUL 31 2015

UTZ001>011-023>025-310900-

NORTHERN UTAH

CITY           SKY/WX    TMP DP  RH WIND       PRES   REMARKS
BRIGHAM CITY   CLEAR     64  38  38 NW5       30.23S
HILL AFB       CLEAR     70  31  23 E15       30.26S
LOGAN          CLEAR     54  40  59 NE3       30.26F
OGDEN          CLEAR     69  31  24 S9        30.23S
PROVO AIRPORT  PTCLDY    64  34  32 CALM      30.25S
SALT LAKE CITY PTCLDY    68  35  29 SE5       30.22S
VERNAL         CLEAR     70  24  17 CALM      30.27S
WENDOVER       CLEAR     70  30  23 CALM      30.23S
HEBER CITY     CLEAR     46  34  61 CALM      30.35S
WEST JORDAN    CLEAR     70  30  23 W6        30.25S

$$

UTZ012>022-026-027-310900-

SOUTHERN/CENTRAL UTAH

CITY           SKY/WX    TMP DP  RH WIND       PRES   REMARKS
BLANDING       MOCLDY    68  52  55 SE13G20   30.45S
BRYCE CANYON   MOCLDY    60  41  49 W5        30.46F
CEDAR CITY     PTCLDY    69  34  27 CALM      30.29R
DELTA          MOCLDY    71  23  16 NE8       30.22F
HANKSVILLE     PTCLDY    70  23  17 SE6       30.21R
MILFORD        CLEAR     65  21  18 CALM      30.23R
MOAB/CYNLANDS  CLEAR     71  22  15 E5        30.18R
PRICE          PTCLDY    63  17  17 CALM      30.30F
ST GEORGE      SUNNY     84  52  32 SW9       30.09F
KANAB          MOCLDY    70  50  49 N3        30.31S

$$

REGIONAL REPORTS     COLORADO/ARIZONA

CITY           SKY/WX    TMP DP  RH WIND       PRES   REMARKS
CRAIG, CO      CLEAR     46  34  62 CALM      30.36R
GRAND JUNCTION CLEAR     66  24  20 SE3       30.22R
RIFLE          CLEAR     64  31  28 CALM      30.30S
MONTROSE       PTCLDY    66  34  30 S8        30.32S
CORTEZ         CLEAR     67  56  67 SW8       30.39S
PAGE, AZ       PTCLDY    82  50  32 S8        30.20S
GRAND CANYON   MOCLDY    60  46  59 CALM      30.40S
KINGMAN        PTCLDY    77  54  44 VRB6      30.12S
FLAGSTAFF      PTCLDY    53  52  96 CALM      30.43F

$$

REGIONAL REPORTS    NEVADA/IDAHO/WYOMING

CITY           SKY/WX    TMP DP  RH WIND       PRES   REMARKS
LAS VEGAS, NV  CLOUDY    93  48  21 NW6       29.95F
ELY            MOCLDY    60  24  25 SE5       30.35S
ELKO           CLEAR     69  26  20 E3        30.28S
POCATELLO, ID  CLEAR     55  36  48 NW5       30.26S
BURLEY         PTCLDY    58  39  49 S3        30.22S
EVANSTON, WY   CLEAR     57  22  25 SE7       30.46S
ROCK SPRINGS   CLEAR     60  18  19 CALM      30.41R
KEMMERER       CLEAR     55  28  35 N10       30.46S

$$



USA.gov is the U.S. government's official web portal to all federal, state and local government web resources and services.